User: anonymous   Login
Location: Congrier
(47.8099°N, 1.1170°W)
Time: 23:17:52
(UTC+00:00)
Language:

CZ-4C R/B - Orbit

View from above orbital plane
View from above orbital plane
View from above satellite
View from above satellite

Ground track
Ground track

The orbit data is extracted from the following two-line orbital elements,

1 39211U 13037D   23151.50594132  .00005904  00000-0  30438-3 0  9990
2 39211  98.0724 344.7630 0110822 166.8090 193.6079 15.11531500541512
Epoch (UTC): 31 May 2023 12:08:33
Eccentricity: 0.0110822
inclination: 98.0724°
perigee height: 455 km
apogee height: 608 km
right ascension of ascending node: 344.7630°
argument of perigee: 166.8090°
revolutions per day: 15.11531500
mean anomaly at epoch: 193.6079°
orbit number at epoch: 54151

The dashed part of the orbit path shows where the satellite is in the earth's shadow,  

DLR